Time,TemperatureF,DewpointF,PressureIn,WindDirection,WindDirectionDegrees,WindSpeedMPH,WindSpeedGustMPH,Humidity,HourlyPrecipIn,Conditions,Clouds,dailyrainin,SoftwareType,DateUTC
2013-09-05 00:02:00,59.4,50.4,30.03,ENE,68,0.4,1.8,72,0.00,,,0.00,WUHU216HW,2013-09-05 07:02:00,
2013-09-05 00:07:00,59.2,50.2,30.03,ENE,68,0.7,1.8,72,0.00,,,0.00,WUHU216HW,2013-09-05 07:07:00,
2013-09-05 00:12:00,58.9,49.9,30.03,ENE,68,0.4,0.7,72,0.00,,,0.00,WUHU216HW,2013-09-05 07:12:00,
2013-09-05 00:17:00,58.7,49.7,30.03,ENE,68,0.4,0.7,72,0.00,,,0.00,WUHU216HW,2013-09-05 07:17:00,
2013-09-05 00:22:00,58.1,50.2,30.03,ENE,68,1.3,1.3,75,0.00,,,0.00,WUHU216HW,2013-09-05 07:22:00,
2013-09-05 00:27:00,57.8,49.5,30.03,ENE,68,0.0,1.3,74,0.00,,,0.00,WUHU216HW,2013-09-05 07:27:00,
2013-09-05 00:32:00,57.6,49.7,30.03,ENE,68,0.0,1.3,75,0.00,,,0.00,WUHU216HW,2013-09-05 07:32:00,
2013-09-05 00:37:00,57.4,49.1,30.03,ENE,68,0.7,0.7,74,0.00,,,0.00,WUHU216HW,2013-09-05 07:37:00,
2013-09-05 00:42:00,57.2,49.3,30.03,ENE,68,1.1,1.1,75,0.00,,,0.00,WUHU216HW,2013-09-05 07:42:00,
2013-09-05 00:47:00,57.1,49.1,30.03,ENE,68,0.0,1.1,75,0.00,,,0.00,WUHU216HW,2013-09-05 07:47:00,
2013-09-05 00:52:00,57.1,49.5,30.03,ENE,68,0.2,1.1,76,0.00,,,0.00,WUHU216HW,2013-09-05 07:52:00,
2013-09-05 00:57:00,56.9,49.3,30.02,ENE,68,1.1,1.1,76,0.00,,,0.00,WUHU216HW,2013-09-05 07:57:00,
2013-09-05 01:02:00,56.5,49.3,30.02,ENE,68,0.7,1.1,77,0.00,,,0.00,WUHU216HW,2013-09-05 08:02:00,
2013-09-05 01:07:00,56.5,49.3,30.03,ENE,68,0.7,1.1,77,0.00,,,0.00,WUHU216HW,2013-09-05 08:07:00,
2013-09-05 01:12:00,56.5,49.3,30.03,ENE,68,0.9,0.9,77,0.00,,,0.00,WUHU216HW,2013-09-05 08:12:00,
2013-09-05 01:17:00,56.5,49.7,30.03,ENE,68,0.0,0.9,78,0.00,,,0.00,WUHU216HW,2013-09-05 08:17:00,
2013-09-05 01:22:00,56.5,49.7,30.03,ENE,68,1.1,1.1,78,0.00,,,0.00,WUHU216HW,2013-09-05 08:22:00,
2013-09-05 01:27:00,56.5,50.0,30.02,ENE,68,0.0,1.1,79,0.00,,,0.00,WUHU216HW,2013-09-05 08:27:00,
2013-09-05 01:32:00,56.5,50.4,30.02,ENE,68,0.0,1.1,80,0.00,,,0.00,WUHU216HW,2013-09-05 08:32:00,
2013-09-05 01:37:00,56.5,50.0,30.02,ENE,68,0.0,0.0,79,0.00,,,0.00,WUHU216HW,2013-09-05 08:37:00,
2013-09-05 01:42:00,56.5,50.0,30.02,ENE,68,0.0,0.0,79,0.00,,,0.00,WUHU216HW,2013-09-05 08:42:00,
2013-09-05 01:47:00,56.3,50.2,30.01,ENE,68,1.1,1.1,80,0.00,,,0.00,WUHU216HW,2013-09-05 08:47:00,
2013-09-05 01:52:00,56.3,50.2,30.02,ENE,68,0.9,1.1,80,0.00,,,0.00,WUHU216HW,2013-09-05 08:52:00,
2013-09-05 01:57:00,56.3,50.2,30.01,ENE,68,0.7,1.1,80,0.00,,,0.00,WUHU216HW,2013-09-05 08:57:00,
2013-09-05 02:02:00,56.3,49.9,30.01,ENE,68,1.6,1.6,79,0.00,,,0.00,WUHU216HW,2013-09-05 09:02:00,
2013-09-05 02:07:00,56.2,49.7,30.02,East,90,0.2,1.6,79,0.00,,,0.00,WUHU216HW,2013-09-05 09:07:00,
2013-09-05 02:12:00,56.2,49.7,30.02,East,90,1.1,1.6,79,0.00,,,0.00,WUHU216HW,2013-09-05 09:12:00,
2013-09-05 02:17:00,56.2,49.7,30.02,East,90,1.1,1.1,79,0.00,,,0.00,WUHU216HW,2013-09-05 09:17:00,
2013-09-05 02:22:00,55.8,49.7,30.02,East,90,0.7,1.3,80,0.00,,,0.00,WUHU216HW,2013-09-05 09:22:00,
2013-09-05 02:27:00,55.8,49.7,30.01,East,90,0.4,1.3,80,0.00,,,0.00,WUHU216HW,2013-09-05 09:27:00,
2013-09-05 02:32:00,55.6,49.5,30.02,East,90,1.1,1.1,80,0.00,,,0.00,WUHU216HW,2013-09-05 09:32:00,
2013-09-05 02:37:00,55.6,49.1,30.02,East,90,0.4,1.1,79,0.00,,,0.00,WUHU216HW,2013-09-05 09:37:00,
2013-09-05 02:42:00,55.4,48.6,30.01,East,90,1.3,1.3,78,0.00,,,0.00,WUHU216HW,2013-09-05 09:42:00,
2013-09-05 02:47:00,54.7,48.3,30.02,East,90,0.0,1.3,79,0.00,,,0.00,WUHU216HW,2013-09-05 09:47:00,
2013-09-05 02:52:00,54.7,48.3,30.02,East,90,0.0,1.3,79,0.00,,,0.00,WUHU216HW,2013-09-05 09:52:00,
2013-09-05 02:57:00,54.4,48.3,30.02,East,90,0.0,0.0,80,0.00,,,0.00,WUHU216HW,2013-09-05 09:57:00,
2013-09-05 03:02:00,54.2,48.5,30.02,East,90,0.4,0.4,81,0.00,,,0.00,WUHU216HW,2013-09-05 10:02:00,
2013-09-05 03:07:00,54.2,48.5,30.02,East,90,0.0,0.4,81,0.00,,,0.00,WUHU216HW,2013-09-05 10:07:00,
2013-09-05 03:12:00,54.0,48.1,30.02,East,90,1.1,1.1,80,0.00,,,0.00,WUHU216HW,2013-09-05 10:12:00,
2013-09-05 03:17:00,53.8,47.9,30.02,East,90,1.1,1.1,80,0.00,,,0.00,WUHU216HW,2013-09-05 10:17:00,
2013-09-05 03:22:00,53.8,48.5,30.02,East,90,0.2,1.1,82,0.00,,,0.00,WUHU216HW,2013-09-05 10:22:00,
2013-09-05 03:27:00,53.8,48.2,30.02,East,90,0.0,1.1,81,0.00,,,0.00,WUHU216HW,2013-09-05 10:27:00,
2013-09-05 03:32:00,53.8,48.2,30.02,East,90,0.0,0.2,81,0.00,,,0.00,WUHU216HW,2013-09-05 10:32:00,
2013-09-05 03:37:00,53.8,48.2,30.02,East,90,0.0,0.0,81,0.00,,,0.00,WUHU216HW,2013-09-05 10:37:00,
2013-09-05 03:42:00,53.8,48.2,30.02,East,90,0.0,0.0,81,0.00,,,0.00,WUHU216HW,2013-09-05 10:42:00,
2013-09-05 03:50:00,53.1,47.4,30.02,East,90,0.0,0.0,81,0.00,,,0.00,WUHU216HW,2013-09-05 10:50:00,
2013-09-05 03:55:00,52.9,47.3,30.02,East,90,0.0,0.0,81,0.00,,,0.00,WUHU216HW,2013-09-05 10:55:00,
2013-09-05 04:00:00,52.9,47.3,30.02,East,90,0.0,0.0,81,0.00,,,0.00,WUHU216HW,2013-09-05 11:00:00,
2013-09-05 04:05:00,52.9,47.3,30.02,East,90,0.0,0.0,81,0.00,,,0.00,WUHU216HW,2013-09-05 11:05:00,
2013-09-05 04:10:00,52.2,47.2,30.02,East,90,0.9,0.9,83,0.00,,,0.00,WUHU216HW,2013-09-05 11:10:00,
2013-09-05 04:15:00,52.2,47.5,30.02,East,90,1.1,1.1,84,0.00,,,0.00,WUHU216HW,2013-09-05 11:15:00,
2013-09-05 04:20:00,52.2,47.5,30.02,East,90,0.4,1.1,84,0.00,,,0.00,WUHU216HW,2013-09-05 11:20:00,
2013-09-05 04:25:00,52.0,47.6,30.02,East,90,0.7,1.1,85,0.00,,,0.00,WUHU216HW,2013-09-05 11:25:00,
2013-09-05 04:30:00,52.2,48.1,30.02,East,90,0.7,0.7,86,0.00,,,0.00,WUHU216HW,2013-09-05 11:30:00,
2013-09-05 04:35:00,52.4,48.2,30.02,East,90,0.9,1.1,86,0.00,,,0.00,WUHU216HW,2013-09-05 11:35:00,
2013-09-05 04:40:00,52.6,48.8,30.02,East,90,0.7,1.1,87,0.00,,,0.00,WUHU216HW,2013-09-05 11:40:00,
2013-09-05 04:45:00,52.6,48.8,30.02,East,90,0.4,0.9,87,0.00,,,0.00,WUHU216HW,2013-09-05 11:45:00,
2013-09-05 04:50:00,52.7,48.6,30.02,East,90,0.0,0.7,86,0.00,,,0.00,WUHU216HW,2013-09-05 11:50:00,
2013-09-05 04:55:00,52.7,48.6,30.02,East,90,0.4,0.4,86,0.00,,,0.00,WUHU216HW,2013-09-05 11:55:00,
2013-09-05 05:00:00,52.6,48.4,30.02,East,90,0.0,0.4,86,0.00,,,0.00,WUHU216HW,2013-09-05 12:00:00,
2013-09-05 05:05:00,52.2,47.8,30.02,East,90,0.0,0.4,85,0.00,,,0.00,WUHU216HW,2013-09-05 12:05:00,
2013-09-05 05:10:00,51.8,47.7,30.02,East,90,0.0,0.0,86,0.00,,,0.00,WUHU216HW,2013-09-05 12:10:00,
2013-09-05 05:15:00,51.8,47.7,30.02,East,90,0.2,0.2,86,0.00,,,0.00,WUHU216HW,2013-09-05 12:15:00,
2013-09-05 05:20:00,51.8,47.7,30.02,East,90,0.4,0.4,86,0.00,,,0.00,WUHU216HW,2013-09-05 12:20:00,
2013-09-05 05:25:00,51.7,47.3,30.02,East,90,0.4,0.4,85,0.00,,,0.00,WUHU216HW,2013-09-05 12:25:00,
2013-09-05 05:30:00,51.5,47.1,30.03,East,90,0.9,0.9,85,0.00,,,0.00,WUHU216HW,2013-09-05 12:30:00,
2013-09-05 05:35:00,51.5,47.3,30.02,East,90,0.4,0.9,86,0.00,,,0.00,WUHU216HW,2013-09-05 12:35:00,
2013-09-05 05:40:00,51.5,47.3,30.02,East,90,0.0,1.3,86,0.00,,,0.00,WUHU216HW,2013-09-05 12:40:00,
2013-09-05 05:45:00,51.5,47.1,30.02,East,90,0.0,1.3,85,0.00,,,0.00,WUHU216HW,2013-09-05 12:45:00,
2013-09-05 05:50:00,51.7,47.3,30.02,East,90,0.0,0.0,85,0.00,,,0.00,WUHU216HW,2013-09-05 12:50:00,
2013-09-05 05:55:00,51.7,47.3,30.02,East,90,0.0,0.0,85,0.00,,,0.00,WUHU216HW,2013-09-05 12:55:00,
2013-09-05 06:01:00,51.7,47.3,30.02,East,90,1.1,1.1,85,0.00,,,0.00,WUHU216HW,2013-09-05 13:01:00,
2013-09-05 06:06:00,51.7,47.3,30.02,East,90,0.0,1.1,85,0.00,,,0.00,WUHU216HW,2013-09-05 13:06:00,
2013-09-05 06:11:00,51.7,47.3,30.03,East,90,0.0,1.1,85,0.00,,,0.00,WUHU216HW,2013-09-05 13:11:00,
2013-09-05 06:16:00,51.5,47.1,30.03,East,90,0.0,0.0,85,0.00,,,0.00,WUHU216HW,2013-09-05 13:16:00,
2013-09-05 06:21:00,51.5,47.1,30.03,East,90,0.0,0.0,85,0.00,,,0.00,WUHU216HW,2013-09-05 13:21:00,
2013-09-05 06:26:00,51.5,46.8,30.03,East,90,0.0,0.0,84,0.00,,,0.00,WUHU216HW,2013-09-05 13:26:00,
2013-09-05 06:31:00,51.5,46.8,30.03,East,90,0.0,0.0,84,0.00,,,0.00,WUHU216HW,2013-09-05 13:31:00,
2013-09-05 06:36:00,51.5,47.1,30.03,East,90,0.0,0.0,85,0.00,,,0.00,WUHU216HW,2013-09-05 13:36:00,
2013-09-05 06:41:00,51.5,46.8,30.03,East,90,0.0,0.0,84,0.00,,,0.00,WUHU216HW,2013-09-05 13:41:00,
2013-09-05 06:46:00,51.5,46.8,30.03,East,90,0.0,0.0,84,0.00,,,0.00,WUHU216HW,2013-09-05 13:46:00,
2013-09-05 06:51:00,51.5,47.1,30.03,East,90,0.7,0.7,85,0.00,,,0.00,WUHU216HW,2013-09-05 13:51:00,
2013-09-05 06:56:00,51.5,47.1,30.03,East,90,0.4,0.7,85,0.00,,,0.00,WUHU216HW,2013-09-05 13:56:00,
2013-09-05 07:01:00,51.7,47.3,30.03,East,90,0.2,0.7,85,0.00,,,0.00,WUHU216HW,2013-09-05 14:01:00,
2013-09-05 07:05:00,51.8,47.4,30.03,East,90,0.0,0.4,85,0.00,,,0.00,WUHU216HW,2013-09-05 14:05:00,
2013-09-05 07:10:00,52.0,47.9,30.03,East,90,0.0,0.2,86,0.00,,,0.00,WUHU216HW,2013-09-05 14:10:00,
2013-09-05 07:15:00,52.0,47.9,30.03,East,90,0.0,0.0,86,0.00,,,0.00,WUHU216HW,2013-09-05 14:15:00,
2013-09-05 07:20:00,52.0,47.9,30.03,East,90,0.0,0.0,86,0.00,,,0.00,WUHU216HW,2013-09-05 14:20:00,
2013-09-05 09:39:00,66.2,52.8,30.03,SSW,203,0.2,0.2,62,0.00,,,0.00,WUHU216HW,2013-09-05 16:39:00,
2013-09-05 09:44:00,66.2,52.8,30.03,SSW,203,0.2,0.2,62,0.00,,,0.00,WUHU216HW,2013-09-05 16:44:00,
2013-09-05 09:49:00,66.2,52.8,30.03,SSW,203,0.2,0.2,62,0.00,,,0.00,WUHU216HW,2013-09-05 16:49:00,
2013-09-05 11:01:00,70.7,52.2,30.01,West,270,1.3,1.8,52,0.00,,,0.00,WUHU216HW,2013-09-05 18:01:00,
2013-09-05 11:06:00,70.2,52.2,30.01,NE,45,6.3,6.3,53,0.00,,,0.00,WUHU216HW,2013-09-05 18:06:00,
2013-09-05 11:11:00,70.2,51.8,30.01,ENE,68,2.5,6.3,52,0.00,,,0.00,WUHU216HW,2013-09-05 18:11:00,
2013-09-05 11:16:00,70.2,51.8,30.01,ENE,68,2.5,6.3,52,0.00,,,0.00,WUHU216HW,2013-09-05 18:16:00,
2013-09-05 11:21:00,70.2,51.8,30.01,ENE,68,2.5,2.5,52,0.00,,,0.00,WUHU216HW,2013-09-05 18:21:00,
2013-09-05 11:26:00,70.2,51.8,30.01,ENE,68,2.5,2.5,52,0.00,,,0.00,WUHU216HW,2013-09-05 18:26:00,
2013-09-05 11:32:00,70.2,51.2,30.00,NE,45,4.5,4.5,51,0.00,,,0.00,WUHU216HW,2013-09-05 18:32:00,
2013-09-05 11:37:00,70.2,51.2,30.00,NE,45,4.5,4.5,51,0.00,,,0.00,WUHU216HW,2013-09-05 18:37:00,
2013-09-05 11:42:00,70.2,51.2,30.00,NE,45,4.5,4.5,51,0.00,,,0.00,WUHU216HW,2013-09-05 18:42:00,
2013-09-05 15:03:00,72.7,50.6,29.93,North,0,6.7,7.6,46,0.00,,,0.00,WUHU216HW,2013-09-05 22:03:00,
2013-09-05 15:08:00,72.7,50.6,29.93,North,0,6.7,7.6,46,0.00,,,0.00,WUHU216HW,2013-09-05 22:08:00,
2013-09-05 15:13:00,72.7,50.6,29.94,North,0,6.7,6.7,46,0.00,,,0.00,WUHU216HW,2013-09-05 22:13:00,
2013-09-05 15:18:00,72.7,50.6,29.94,North,0,6.7,6.7,46,0.00,,,0.00,WUHU216HW,2013-09-05 22:18:00,
2013-09-05 17:33:00,64.8,47.2,29.99,WNW,293,7.8,12.1,53,0.02,,,0.02,WUHU216HW,2013-09-06 00:33:00,
2013-09-05 17:38:00,64.4,46.8,29.98,SW,225,9.8,12.1,53,0.02,,,0.02,WUHU216HW,2013-09-06 00:38:00,
2013-09-05 17:43:00,64.3,47.6,29.98,WNW,293,8.1,9.8,55,0.02,,,0.02,WUHU216HW,2013-09-06 00:43:00,
2013-09-05 17:48:00,63.7,47.2,29.98,WNW,293,13.4,13.4,55,0.02,,,0.02,WUHU216HW,2013-09-06 00:48:00,
2013-09-05 17:53:00,63.5,47.4,29.98,West,270,4.3,13.4,56,0.02,,,0.02,WUHU216HW,2013-09-06 00:53:00,
2013-09-05 17:58:00,63.4,46.8,29.99,NNW,338,9.4,13.4,55,0.02,,,0.02,WUHU216HW,2013-09-06 00:58:00,
2013-09-05 18:03:00,63.0,47.0,30.00,WSW,248,4.9,9.4,56,0.02,,,0.02,WUHU216HW,2013-09-06 01:03:00,
2013-09-05 18:08:00,63.4,47.4,30.00,WSW,248,2.2,9.4,56,0.02,,,0.02,WUHU216HW,2013-09-06 01:08:00,
2013-09-05 18:13:00,63.7,46.6,30.01,WSW,248,6.3,7.6,54,0.02,,,0.02,WUHU216HW,2013-09-06 01:13:00,
2013-09-05 18:18:00,63.7,47.2,30.01,WSW,248,8.5,8.5,55,0.02,,,0.02,WUHU216HW,2013-09-06 01:18:00,
2013-09-05 18:23:00,63.7,46.6,30.00,WSW,248,10.3,10.3,54,0.02,,,0.02,WUHU216HW,2013-09-06 01:23:00,
2013-09-05 18:28:00,63.4,46.4,30.01,SW,225,3.8,10.3,54,0.02,,,0.02,WUHU216HW,2013-09-06 01:28:00,
2013-09-05 18:33:00,63.2,46.2,30.02,WSW,248,12.1,12.1,54,0.00,,,0.02,WUHU216HW,2013-09-06 01:33:00,
2013-09-05 18:38:00,63.0,46.5,30.03,WSW,248,12.5,12.5,55,0.00,,,0.02,WUHU216HW,2013-09-06 01:38:00,
2013-09-05 18:43:00,62.8,46.4,30.03,WSW,248,10.3,12.5,55,0.00,,,0.02,WUHU216HW,2013-09-06 01:43:00,
2013-09-05 18:48:00,62.6,46.2,30.03,WNW,293,6.9,12.5,55,0.00,,,0.02,WUHU216HW,2013-09-06 01:48:00,
2013-09-05 18:53:00,62.3,45.8,30.04,SW,225,8.3,10.3,55,0.00,,,0.02,WUHU216HW,2013-09-06 01:53:00,
2013-09-05 18:58:00,61.6,45.7,30.04,WSW,248,12.5,12.5,56,0.00,,,0.02,WUHU216HW,2013-09-06 01:58:00,
2013-09-05 19:03:00,60.5,45.6,30.05,SW,225,9.2,12.5,58,0.00,,,0.02,WUHU216HW,2013-09-06 02:03:00,
2013-09-05 19:08:00,59.9,45.6,30.06,West,270,10.5,12.5,59,0.00,,,0.02,WUHU216HW,2013-09-06 02:08:00,
2013-09-05 19:13:00,59.0,45.6,30.05,WNW,293,6.3,10.5,61,0.00,,,0.02,WUHU216HW,2013-09-06 02:13:00,
2013-09-05 19:18:00,58.9,45.0,30.05,West,270,3.6,10.5,60,0.00,,,0.02,WUHU216HW,2013-09-06 02:18:00,
2013-09-05 19:23:00,58.9,45.0,30.06,WSW,248,6.7,6.7,60,0.00,,,0.02,WUHU216HW,2013-09-06 02:23:00,
2013-09-05 19:28:00,58.5,44.7,30.06,SW,225,6.3,6.7,60,0.00,,,0.02,WUHU216HW,2013-09-06 02:28:00,
2013-09-05 19:33:00,58.3,44.6,30.07,West,270,6.7,6.7,60,0.00,,,0.02,WUHU216HW,2013-09-06 02:33:00,
2013-09-05 19:38:00,58.1,44.8,30.06,WSW,248,5.4,6.7,61,0.00,,,0.02,WUHU216HW,2013-09-06 02:38:00,
2013-09-05 19:43:00,57.8,44.5,30.07,SW,225,5.4,6.7,61,0.00,,,0.02,WUHU216HW,2013-09-06 02:43:00,
2013-09-05 19:48:00,57.6,44.6,30.07,WSW,248,4.9,5.4,62,0.00,,,0.02,WUHU216HW,2013-09-06 02:48:00,
2013-09-05 19:53:00,57.6,44.6,30.07,WNW,293,3.6,5.4,62,0.00,,,0.02,WUHU216HW,2013-09-06 02:53:00,
2013-09-05 19:58:00,57.2,44.7,30.07,WSW,248,5.6,5.6,63,0.00,,,0.02,WUHU216HW,2013-09-06 02:58:00,
2013-09-05 20:03:00,57.2,45.2,30.07,WSW,248,2.9,5.6,64,0.00,,,0.02,WUHU216HW,2013-09-06 03:03:00,
2013-09-05 20:08:00,57.1,45.0,30.08,SW,225,7.2,7.2,64,0.00,,,0.02,WUHU216HW,2013-09-06 03:08:00,
2013-09-05 20:13:00,56.9,44.8,30.08,WNW,293,2.7,7.2,64,0.00,,,0.02,WUHU216HW,2013-09-06 03:13:00,
2013-09-05 20:18:00,56.7,45.0,30.08,WSW,248,3.4,7.2,65,0.00,,,0.02,WUHU216HW,2013-09-06 03:18:00,
2013-09-05 20:23:00,56.7,45.5,30.08,SW,225,4.0,4.7,66,0.00,,,0.02,WUHU216HW,2013-09-06 03:23:00,
2013-09-05 20:28:00,56.5,45.3,30.08,WSW,248,4.0,4.0,66,0.00,,,0.02,WUHU216HW,2013-09-06 03:28:00,
2013-09-05 20:32:00,56.3,45.5,30.08,SSW,203,4.7,4.7,67,0.00,,,0.02,WUHU216HW,2013-09-06 03:32:00,
2013-09-05 20:37:00,56.3,45.9,30.08,WNW,293,5.4,5.4,68,0.00,,,0.02,WUHU216HW,2013-09-06 03:37:00,
2013-09-05 20:42:00,56.3,45.9,30.08,WNW,293,4.7,5.4,68,0.00,,,0.02,WUHU216HW,2013-09-06 03:42:00,
2013-09-05 20:47:00,56.2,45.7,30.08,NW,315,5.8,5.8,68,0.00,,,0.02,WUHU216HW,2013-09-06 03:47:00,
2013-09-05 20:52:00,56.0,45.5,30.08,WSW,248,3.6,5.8,68,0.00,,,0.02,WUHU216HW,2013-09-06 03:52:00,
2013-09-05 20:57:00,56.2,45.7,30.08,WSW,248,3.4,5.8,68,0.00,,,0.02,WUHU216HW,2013-09-06 03:57:00,
2013-09-05 21:02:00,56.2,45.7,30.08,WSW,248,3.4,3.6,68,0.00,,,0.02,WUHU216HW,2013-09-06 04:02:00,
2013-09-05 22:02:00,54.9,45.7,30.08,SW,225,5.6,5.6,71,0.00,,,0.02,WUHU216HW,2013-09-06 05:02:00,
2013-09-05 22:07:00,54.7,45.6,30.08,SW,225,3.6,5.6,71,0.00,,,0.02,WUHU216HW,2013-09-06 05:07:00,
2013-09-05 22:13:00,54.7,45.6,30.08,SW,225,3.6,5.6,71,0.00,,,0.02,WUHU216HW,2013-09-06 05:13:00,
2013-09-05 22:17:00,54.7,45.6,30.08,SW,225,3.6,3.6,71,0.00,,,0.02,WUHU216HW,2013-09-06 05:17:00,